Location: Maccacari
(45.1333°N, 11.1333°E)
Time: 14:00:22
(UTC+00:00)

S-56A Canister/Altair - Pass Details

Date: 30 January 2021
Orbit: 631 x 2501 km, 38.9° (Epoch: 01 March)

Event Time Altitude Azimuth Distance (km) Brightness Sun altitude
Rises 01:51:30 0° 257° (WSW) 3,207 - -49.5°
Reaches altitude 10° 01:54:11 10° 250° (WSW) 2,142 - -49.1°
Maximum altitude 01:58:34 39° 182° (S) 957 - -48.5°
Drops below altitude 10° 02:02:42 10° 113° (ESE) 2,027 - -47.8°
Sets 02:05:11 0° 105° (ESE) 3,009 - -47.4°
